sat.trackr.live / text

‹ back to catalog

STARLINK-36743

NORAD 67876 · 2026-034AC

PAYLOAD ACTIVE UNKNOWN

§ Identity

Operator
Country
US
Launch date
2026-02-20
Launch site
AFETR
Launch vehicle
Mass (kg)
RCS (m²)

Purposes: comms

External: N2YO · Heavens-Above · Gunter

§ Orbital elements

Epoch: 2026-09-19T19:53:13.279488Z

Period
93.85 min
Inclination
53.1591°
Eccentricity
0.0000864
Mean motion
15.34425492 rev/d
Perigee alt
462.0 km
Apogee alt
463.2 km
Semi-major
6,840.8 km
B*
5.7670e-4
RAAN
20.7558°
Arg perigee
71.0161°
Mean anomaly
289.0936°
Rev number
3,378

§ Raw data

STARLINK-367431 67876U 26034AC  26262.82862592  .00019174  00000+0  57670-3 0  99982 67876  53.1591  20.7558 0000864  71.0161 289.0936 15.34425492 33788

JSON: /api/v1/satellites/67876 · /tle

For live sub-satellite position, see the globe view (requires WebGL).

§ Visibility from observer

Set your observer location to see the next 7 days of passes ≥ 10°. The values pass through the URL so the page stays shareable.

No JS? Fill the form by hand. The geolocation button needs JavaScript.